Weather in Onega

Russia / Arkhangel'skaya Oblast'     63°54′52″N   38°05′11″E
temp.,
°C
wind,
m/s
gust,
m/s
humid.,
%
clouds,
%
prec.,
mm/h
press.,
hPa
HPBL,
m
28 february, sun
sun2800:00−8w2310095 0.1 101125
03:00−6wsw349898 0.1 1011139
06:00−7sw2396100 0.1 1010120
09:00−7ssw2395100 0.1 1011112
12:00−4ssw249499 0.0 1011251
15:00−4ssw239497 0.1 1012115
18:00−5ssw349780 0.1 101238
21:00−2wsw369790 0.4 1013229
1 march, mon
mon100:00−1wsw4797100 0.1 1011224
03:00−1sw4896100 0.1 1010161
06:00−3wsw469399 0.0 1006159
09:00+1wsw71397100 0.6 1004432
12:00+1w71395100 0.2 1002445
15:00+1w71298100 0.9 1001409
18:00+1wnw71296100 0.0 999561
21:000w51090100 0.1 999338
2 march, tue
tue200:00−1wnw51098100 0.6 998398
03:00−4w5109486 0.8 998215
06:00−2w91497100 0.9 996668
09:00−1nw101692100 1.6 998815
12:00−3nw8138698 0.2 1002666
15:00−3nw7118798 0.2 1005572
18:00−7nw479293 0.0 1007113
21:00−9nw469449 0.0 100881
3 march, wed
wed300:00−10nw57951 0.0 1009119
03:00−10nw579413 0.0 1011114
06:00−11nw469551 0.0 1012101
09:00−12wnw469648 0.0 1013118
12:00−10wnw479574 0.0 1013181
15:00−8wnw459443 0.0 1012135
18:00−9w229761 0.0 101021
21:00−5ssw359680 0.1 1007134
4 march, thu
thu400:00−4ssw4992100 0.0 1002247
03:00−3sw61297100 2.0 996511
06:000sw71498100 2.3 990628
09:00+1wsw81592100 2.8 987771
12:00−4wnw71277100 0.9 986907
15:00−6w6128475 0.9 985463
18:00−6w111694100 0.6 984846
21:00−8nw111786100 1.2 986970